Location: Unspecified
(0.0000°N, 0.0000°E)
Time: 04:55:32
(UTC+00:00)

Vanguard 1 - Pass Details

Date: 14 December 2023
Orbit: 653 x 3826 km, 34.3° (Epoch: 22 February)

Event Time Altitude Azimuth Distance (km) Brightness Sun altitude
Rises 00:27:27 0° 300° (WNW) 7,883 - -65.5°
Reaches altitude 10° 00:32:51 10° 298° (WNW) 6,923 - -65.0°
Maximum altitude 00:55:54 65° 220° (SW) 3,467 - -62.4°
Exits shadow 01:02:29 46° 161° (SSE) 3,539 12.7 -61.5°
Drops below altitude 10° 01:11:09 10° 139° (SE) 4,826 13.9 -60.2°
Sets 01:14:12 0° 136° (SE) 5,487 14.3 -59.8°
